Weather History for KLXV - December, 2012

Change the Weather History Date:

Monday, December 10, 2012

  Actual Average Record
Temperature  
Mean Temperature 2 °F -  
Max Temperature 12 °F 29 °F - ()
Min Temperature -9 °F 5 °F - ()
Degree Days  
Heating Degree Days 63 48  
Month to date heating degree days 417 474  
Since 1 July heating degree days 3437 3879  
Cooling Degree Days 0 0  
Month to date cooling degree days 0 0  
Year to date cooling degree days 0 0  
Moisture  
Dew Point 1 °F    
Average Humidity 78    
Maximum Humidity 91    
Minimum Humidity 65    
Precipitation  
Precipitation 0.13 in 0.02 in - ()
Month to date precipitation 0.44 0.25  
Year to date precipitation 10.74 11.95  
Sea Level Pressure  
Sea Level Pressure 29.94 in    
Wind  
Wind Speed 9 mph (NNW)    
Max Wind Speed 22 mph    
Max Gust Speed 32 mph    
Visibility 3 miles    
Events Snow    
T = Trace of Precipitation, MM = Missing Value Source: NWS Daily Summary

Daily Weather History Graph

Daily Weather History Graph

Search for Another Location

Airport or City:

Trip Planner

Search our weather history database for the weather conditions in past years. The results will help you decide how hot, cold, wet, or windy it might be!

Date:

Astronomy

Dec. 10, 2012 Rise Set
Actual Time 7:14 AM MST 4:42 PM MST
Civil Twilight 6:44 AM MST 5:12 PM MST
Nautical Twilight 6:10 AM MST 5:45 PM MST
Astronomical Twilight 5:38 AM MST 6:18 PM MST
Moon 4:01 AM MST (12/10) 2:33 PM MST (12/10)
Length of Visible Light 10h 27m
Length of Day
9h 27m
Waning Crescent, 10% of the Moon is Illuminated
Dec 10
Waning Crescent
Dec 13
New
Dec 19
First Quarter
Dec 28
Full
Jan 4
Last Quarter

Hourly Weather History & Observations

Time (MST) Temp. Windchill Dew Point Humidity Pressure Visibility Wind Dir Wind Speed Gust Speed Precip Events Conditions
12:53 AM -8.0 °F -27.1 °F -15.0 °F 71% 30.19 in 10.0 mi NE 11.5 mph - N/A   Clear
1:53 AM -8.0 °F -25.0 °F -14.1 °F 75% 30.20 in 10.0 mi North 9.2 mph - N/A   Partly Cloudy
2:53 AM -2.0 °F -22.6 °F -9.9 °F 69% 30.14 in 10.0 mi North 16.1 mph - N/A   Clear
3:53 AM -0.0 °F -20.7 °F -9.0 °F 66% 30.12 in 10.0 mi NNW 17.3 mph 32.2 mph N/A   Partly Cloudy
4:49 AM -0.4 °F -13.4 °F -7.6 °F 72% 29.91 in 10.0 mi North 6.9 mph - N/A   Overcast
4:53 AM 1.0 °F -11.7 °F -7.1 °F 69% 30.17 in 7.0 mi North 6.9 mph - 0.00 in Snow Light Snow
5:12 AM 1.4 °F -14.5 °F -4.0 °F 78% 29.92 in 2.0 mi NNW 10.4 mph - 0.00 in Snow Light Snow
5:37 AM 1.4 °F -12.5 °F -2.2 °F 85% 29.92 in 1.5 mi NNW 8.1 mph - 0.00 in Snow Light Snow
5:53 AM 1.0 °F -8.7 °F -2.9 °F 83% 30.19 in 1.5 mi NNW 4.6 mph - 0.01 in Snow Light Snow
6:03 AM 1.4 °F -13.5 °F -4.0 °F 78% 29.91 in 3.0 mi North 9.2 mph - 0.00 in Snow Light Snow
6:21 AM -0.4 °F -12.0 °F -2.2 °F 92% 29.90 in 2.5 mi NNW 5.8 mph - 0.00 in Snow Light Snow
6:53 AM -0.0 °F -13.0 °F -2.9 °F 88% 30.20 in 1.2 mi NNW 6.9 mph - 0.00 in Snow Light Snow
7:29 AM 1.4 °F -9.9 °F -2.2 °F 85% 29.90 in 2.5 mi North 5.8 mph - 0.00 in Snow Light Snow
7:37 AM 1.4 °F -12.5 °F -2.2 °F 85% 29.90 in 4.0 mi North 8.1 mph - 0.00 in Snow Light Snow
7:53 AM 1.9 °F -9.2 °F -2.9 °F 80% 30.16 in 3.0 mi NNE 5.8 mph - 0.00 in Snow Light Snow
8:25 AM 3.2 °F -15.3 °F -2.2 °F 78% 29.88 in 3.0 mi NNW 15.0 mph 21.9 mph 0.00 in Snow Light Snow
8:31 AM 6.8 °F -11.3 °F -0.4 °F 72% 29.88 in 1.8 mi NNW 16.1 mph 21.9 mph 0.00 in Snow Light Snow
8:53 AM 5.0 °F -10.8 °F -0.9 °F 76% 30.14 in 0.8 mi North 11.5 mph 26.5 mph 0.00 in Snow Light Snow
9:07 AM 5.0 °F -13.6 °F -0.4 °F 78% 29.88 in 1.0 mi North 16.1 mph 24.2 mph 0.01 in Snow Light Snow
9:34 AM 8.6 °F -8.3 °F 1.4 °F 73% 29.88 in 0.8 mi NNW 15.0 mph 20.7 mph 0.01 in Snow Light Snow
9:53 AM 9.0 °F -7.9 °F 3.0 °F 77% 30.09 in 0.8 mi North 15.0 mph 23.0 mph 0.01 in Snow Light Snow
10:07 AM 10.4 °F -4.1 °F 3.2 °F 73% 29.88 in 1.2 mi North 11.5 mph 18.4 mph 0.00 in Snow Light Snow
10:26 AM 10.4 °F -4.8 °F 3.2 °F 73% 29.89 in 0.8 mi North 12.7 mph 24.2 mph 0.01 in Snow Light Snow
10:53 AM 10.0 °F -4.5 °F 3.9 °F 76% 30.11 in 0.8 mi North 11.5 mph - 0.02 in Snow Light Snow
11:39 AM 10.4 °F -1.5 °F 5.0 °F 79% 29.87 in 0.8 mi NW 8.1 mph - 0.01 in Snow Light Snow
11:53 AM 10.9 °F -2.6 °F 6.1 °F 81% 30.07 in 0.8 mi NW 10.4 mph - 0.01 in Snow Light Snow
12:45 PM 12.2 °F 0.7 °F 6.8 °F 79% 29.86 in 1.0 mi NW 8.1 mph 17.3 mph 0.02 in Snow Light Snow
12:53 PM 10.9 °F -2.6 °F 5.0 °F 77% 30.05 in 1.2 mi WNW 10.4 mph - 0.02 in Snow Light Snow
1:07 PM 12.2 °F -2.5 °F 5.0 °F 73% 29.85 in 2.5 mi WNW 12.7 mph 18.4 mph 0.00 in Snow Light Snow
1:09 PM 10.4 °F -5.4 °F 3.2 °F 73% 29.85 in 3.0 mi WNW 13.8 mph 18.4 mph 0.01 in Snow Light Snow
1:42 PM 10.4 °F -0.4 °F 3.2 °F 73% 29.84 in 2.0 mi Variable 6.9 mph - 0.01 in Snow Light Snow
1:53 PM 10.9 °F -0.8 °F 3.9 °F 73% 30.03 in 2.5 mi WNW 8.1 mph - 0.01 in Snow Light Snow
1:59 PM 10.4 °F -2.4 °F 3.2 °F 73% 29.83 in 3.0 mi NW 9.2 mph 19.6 mph 0.00 in Snow Light Snow
2:15 PM 10.4 °F -1.5 °F 3.2 °F 73% 29.82 in 2.5 mi NW 8.1 mph - 0.00 in Snow Light Snow
2:33 PM 10.4 °F -4.1 °F 3.2 °F 73% 29.82 in 1.5 mi WNW 11.5 mph 19.6 mph 0.00 in Snow Light Snow
2:53 PM 9.0 °F -5.1 °F 3.9 °F 80% 29.99 in 1.5 mi NW 10.4 mph 17.3 mph 0.00 in Snow Light Snow
3:26 PM 8.6 °F -3.7 °F 3.2 °F 79% 29.83 in 0.8 mi WNW 8.1 mph - 0.01 in Snow Light Snow
3:45 PM 8.6 °F -2.6 °F 3.2 °F 79% 29.83 in 1.8 mi NW 6.9 mph - 0.01 in Snow Light Snow
3:48 PM 8.6 °F -3.7 °F 3.2 °F 79% 29.83 in 3.0 mi NW 8.1 mph - 0.01 in Snow Light Snow
3:53 PM 9.0 °F -3.2 °F 3.0 °F 77% 29.99 in 6.0 mi WNW 8.1 mph - 0.01 in   Haze
4:03 PM 8.6 °F -4.7 °F 1.4 °F 73% 29.83 in 10.0 mi NW 9.2 mph - N/A   Overcast
4:53 PM 9.0 °F -3.2 °F 3.0 °F 77% 29.97 in 7.0 mi NW 8.1 mph - N/A   Overcast
5:53 PM 9.0 °F -0.9 °F 3.0 °F 77% 29.97 in 6.0 mi West 5.8 mph - 0.00 in Snow Light Snow
6:11 PM 8.6 °F 0.1 °F 3.2 °F 79% 29.82 in 2.5 mi NW 4.6 mph - 0.00 in Snow Light Snow
6:22 PM 8.6 °F - 5.0 °F 85% 29.82 in 1.5 mi Calm Calm - 0.00 in Snow Light Snow
6:37 PM 8.6 °F 0.1 °F 5.0 °F 85% 29.83 in 2.5 mi NNW 4.6 mph - 0.00 in Snow Light Snow
6:53 PM 8.1 °F 1.4 °F 5.0 °F 87% 29.99 in 2.0 mi NNW 3.5 mph - 0.01 in Snow Light Snow
7:02 PM 8.6 °F 2.0 °F 5.0 °F 85% 29.83 in 1.0 mi NNW 3.5 mph - 0.00 in Snow Light Snow
7:36 PM 8.6 °F -2.6 °F 5.0 °F 85% 29.83 in 1.8 mi North 6.9 mph - 0.01 in Snow Light Snow
7:45 PM 8.6 °F 2.0 °F 5.0 °F 85% 29.83 in 2.0 mi NNW 3.5 mph - 0.01 in Snow Light Snow
7:53 PM 8.1 °F -2.0 °F 5.0 °F 87% 29.98 in 2.5 mi North 5.8 mph - 0.01 in Snow Light Snow
8:15 PM 8.6 °F -2.6 °F 5.0 °F 85% 29.83 in 1.8 mi North 6.9 mph - 0.00 in Snow Light Snow
8:53 PM 8.1 °F -0.5 °F 5.0 °F 87% 29.97 in 1.8 mi NW 4.6 mph - 0.01 in Snow Light Snow
9:38 PM 8.6 °F 0.1 °F 3.2 °F 79% 29.86 in 2.0 mi North 4.6 mph - 0.00 in Snow Light Snow
9:53 PM 8.1 °F -4.3 °F 3.9 °F 83% 29.96 in 2.0 mi NW 8.1 mph - 0.00 in Snow Light Snow
10:03 PM 8.6 °F -2.6 °F 3.2 °F 79% 29.86 in 1.2 mi NW 6.9 mph - 0.00 in Snow Light Snow
10:18 PM 8.6 °F -5.5 °F 3.2 °F 79% 29.86 in 3.0 mi NW 10.4 mph - 0.01 in Snow Light Snow
10:28 PM 8.6 °F -5.5 °F 3.2 °F 79% 29.87 in 1.8 mi NW 10.4 mph - 0.01 in Snow Light Snow
10:37 PM 8.6 °F -6.3 °F 3.2 °F 79% 29.87 in 3.0 mi NW 11.5 mph - 0.01 in Snow Light Snow
10:53 PM 8.1 °F -3.2 °F 3.0 °F 80% 29.96 in 1.8 mi NW 6.9 mph - 0.01 in Snow Light Snow
11:09 PM 6.8 °F -5.9 °F 3.2 °F 85% 29.86 in 3.0 mi NW 8.1 mph - 0.00 in Snow Light Snow
11:25 PM 6.8 °F -6.9 °F 3.2 °F 85% 29.85 in 8.0 mi NW 9.2 mph - 0.00 in   Overcast
11:45 PM 6.8 °F -9.3 °F 1.4 °F 79% 29.84 in 4.0 mi NW 12.7 mph - 0.00 in Snow Light Snow
11:53 PM 7.0 °F -10.4 °F 1.9 °F 80% 29.93 in 2.0 mi NW 15.0 mph 21.9 mph 0.00 in Snow Light Snow